sat.trackr.live / text

‹ back to catalog

STARLINK-36975

NORAD 67993 · 2026-039H

PAYLOAD ACTIVE UNKNOWN

§ Identity

Operator
Country
US
Launch date
2026-02-27
Launch site
AFETR
Launch vehicle
Mass (kg)
RCS (m²)

Purposes: comms

External: N2YO · Heavens-Above · Gunter

§ Orbital elements

Epoch: 2026-05-24T22:26:35.142144Z

Period
94.27 min
Inclination
43.0055°
Eccentricity
0.0001458
Mean motion
15.27591337 rev/d
Perigee alt
482.0 km
Apogee alt
484.0 km
Semi-major
6,861.2 km
B*
3.4010e-4
RAAN
338.3965°
Arg perigee
273.7212°
Mean anomaly
86.3473°
Rev number
1,336

§ Raw data

STARLINK-369751 67993U 26039H   26144.93512896  .00009111  00000+0  34010-3 0  99962 67993  43.0055 338.3965 0001458 273.7212  86.3473 15.27591337 13369

JSON: /api/v1/satellites/67993 · /tle

For live sub-satellite position, see the globe view (requires WebGL).

§ Visibility from observer

Set your observer location to see the next 7 days of passes ≥ 10°. The values pass through the URL so the page stays shareable.

No JS? Fill the form by hand. The geolocation button needs JavaScript.